EHI
3 1 0 0 0 0 0 0 0 0 0 0 0 0 0 0 0 0 0 0 0 0 0 0 0 0 0 0 0 1 0 0 0 0 0 0 0 0 0 0 0 0 0 0 1 2 3 2 1
1 0 0 0 0 0 0 0 0 0 0 0 0 0 0 0 0 0 0 0 0 0 0 0 0 0 0 0 1 1 1 0 0 0 0 0 0 0 0 0 0 0 0 0 0 1 3 3 2
0 0 0 0 0 0 0 0 0 0 0 0 0 0 0 0 0 0 0 0 0 0 0 0 0 0 0 1 2 2 1 0 0 0 0 0 0 0 1 1 0 0 0 0 0 1 2 3 3
0 0 0 0 0 0 0 0 0 0 0 0 0 0 0 0 0 0 0 0 0 0 0 0 0 0 0 1 2 2 1 0 0 0 0 0 0 0 1 1 0 0 0 0 1 1 2 3 3
0 0 0 0 0 0 0 0 0 0 0 0 0 0 0 0 0 0 0 0 0 0 0 0 0 0 0 0 1 1 0 0 0 0 0 0 0 0 0 0 0 0 0 0 1 2 2 3 3
0 0 0 0 0 0 0 0 0 0 0 0 0 0 0 0 0 0 0 0 0 0 0 0 0 0 0 0 0 0 0 0 0 1 0 0 0 0 0 0 0 0 0 0 2 2 2 3 4
0 0 0 0 0 0 0 0 0 0 0 0 0 0 0 0 0 0 0 0 0 0 0 0 0 0 0 1 0 0 0 0 0 0 0 0 0 0 0 0 0 0 0 0 1 2 2 3 4
0 0 0 0 0 0 0 0 0 0 0 0 0 0 0 0 0 0 0 0 0 0 0 0 0 0 0 0 0 0 0 0 0 0 0 0 0 0 0 0 0 0 0 0 0 0 1 2 3
0 0 0 0 0 0 0 0 0 0 0 0 0 0 0 0 0 0 0 0 0 0 0 0 0 0 0 0 0 0 0 0 0 0 0 0 0 0 0 0 0 0 0 0 0 0 0 1 1
0 0 0 0 0 0 0 0 0 0 0 0 0 0 0 0 0 0 0 0 0 0 0 0 0 0 0 0 0 0 0 0 0 0 0 0 0 0 0 0 0 0 0 0 0 0 0 0 0
0 0 0 0 0 0 0 0 0 0 0 0 0 0 0 0 0 0 0 0 0 0 0 0 0 0 0 0 0 0 0 0 0 0 0 0 0 0 0 0 0 0 0 0 0 0 0 0 0
0 0 0 0 0 0 0 0 0 0 0 0 0 0 0 0 0 0 0 0 0 0 0 0 0 0 0 0 0 0 0 0 0 0 0 0 0 0 0 0 0 0 0 0 0 0 0 0 0
0 0 0 0 0 0 0 0 0 0 0 0 0 0 0 0 0 0 0 0 0 0 0 0 0 0 0 0 0 0 0 0 0 0 0 0 0 0 0 0 0 0 0 0 0 0 0 0 0
0 0 0 0 0 0 0 0 0 0 0 0 0 0 0 0 0 0 0 0 0 0 0 0 0 0 0 0 0 0 0 0 0 0 0 0 0 0 0 0 0 0 0 0 0 0 0 0 0
0 0 0 0 0 0 0 0 0 0 0 0 0 0 0 0 0 0 0 0 0 0 0 0 0 0 0 0 0 0 0 0 0 0 0 0 0 0 0 0 0 0 0 0 0 0 0 0 0
0 0 0 0 0 0 0 0 0 0 0 0 0 0 0 0 0 0 0 0 0 0 0 0 0 0 0 0 0 0 0 0 0 0 0 0 0 0 0 0 0 0 0 0 0 0 0 0 0
0 0 0 0 0 0 0 0 0 0 0 0 0 0 0 0 0 0 0 0 0 0 0 0 0 0 0 0 0 0 0 0 0 0 0 0 0 0 0 0 0 0 0 0 0 0 0 0 0
0 0 0 0 0 0 0 0 0 0 0 0 0 0 0 0 0 0 0 0 0 0 0 0 0 0 0 0 0 0 0 0 0 0 0 0 0 0 0 0 0 0 0 0 0 0 0 0 0
0 0 0 0 0 0 0 0 0 0 0 0 0 0 0 0 0 0 0 0 0 0 0 0 0 0 0 0 0 0 0 0 0 0 0 0 0 0 0 0 0 0 0 0 0 0 0 0 0
0 0 0 0 0 0 0 0 0 0 0 0 0 0 0 0 0 0 0 0 0 0 0 0 1 1 0 0 0 0 0 0 0 0 0 0 0 0 0 0 0 0 0 0 0 0 0 0 0
0 0 0 0 0 0 0 0 0 0 0 0 0 0 0 0 0 0 0 0 0 0 0 0 1 2 1 0 0 0 0 0 0 0 0 0 0 0 0 0 0 0 0 0 0 0 0 0 0
0 0 0 0 0 0 0 0 0 0 0 0 0 0 0 0 0 0 0 0 0 0 0 0 1 2 2 1 0 0 0 0 0 0 0 0 0 0 0 0 0 0 0 0 0 0 0 0 0
0 0 0 0 0 0 0 0 0 0 0 0 0 0 0 0 0 0 0 0 0 0 0 0 0 1 2 1 0 0 0 0 0 0 0 0 0 0 0 0 0 0 1 0 0 0 0 0 0
0 0 0 0 0 0 0 0 0 0 0 0 0 0 0 0 0 0 0 0 0 0 0 0 0 0 1 1 0 0 0 0 0 0 0 0 0 0 0 0 0 0 0 0 0 0 0 0 0
0 0 0 0 0 0 0 0 0 0 0 0 0 0 0 0 0 0 0 0 0 0 0 0 0 0 0 0 0 0 0 0 0 0 0 0 0 0 0 0 0 0 0 0 0 0 0 0 0
0 0 0 0 0 0 0 0 0 0 0 0 0 0 0 0 0 0 0 0 0 0 0 0 0 0 0 0 0 0 0 0 0 0 0 0 0 0 0 0 0 0 0 0 0 0 0 0 0
0 0 0 0 0 0 0 0 0 0 0 0 0 0 0 0 0 0 0 0 0 0 0 0 0 0 0 0 0 0 0 0 0 0 0 0 0 0 0 0 0 0 0 0 0 0 0 0 0
0 0 0 0 0 0 0 0 0 0 0 0 0 0 0 0 0 0 0 0 0 0 0 0 0 0 0 0 0 0 0 0 0 0 0 0 0 0 0 0 0 0 0 0 0 0 0 0 0
0 0 0 0 0 0 0 0 0 0 0 0 0 0 0 0 0 0 0 0 0 0 0 0 0 0 0 0 0 0 0 0 0 0 0 0 0 0 0 0 0 0 0 0 0 0 0 0 0
0 0 0 0 0 0 0 0 0 0 0 0 0 0 0 0 0 0 0 0 0 0 0 0 0 0 0 0 0 0 0 0 0 0 0 0 0 0 0 0 0 0 0 0 0 0 0 0 0
Wind_Speed
4 1 2 3 3 3 7 6 4 4 4 6 5 5 5 6 6 6 5 3 3 4 4 4 4 3 4 5 5 5 6 5 5 5 6 6 6 6 7 6 6 7 7 8 8 8 9 9 9
1 1 2 2 1 4 7 5 5 6 5 4 4 4 5 7 6 6 5 4 3 4 4 5 5 4 4 5 5 6 6 6 5 6 6 6 6 7 7 7 7 8 8 8 8 8 9 9 9
1 2 2 1 2 5 7 6 6 6 4 2 3 4 4 5 5 5 5 5 4 4 4 6 4 4 5 5 6 7 7 6 6 5 6 7 7 7 7 8 8 8 7 7 7 8 9 9 8
2 2 1 2 7 7 6 6 5 5 4 2 2 5 5 5 4 5 6 5 5 5 5 7 4 5 5 6 6 7 7 6 6 6 6 7 7 7 7 8 8 7 7 7 8 8 9 9 9
2 1 3 5 7 6 5 4 3 3 3 3 2 5 7 5 5 6 6 5 5 6 5 7 6 6 6 6 7 7 7 7 7 7 7 7 7 7 7 7 7 7 7 7 7 9 9 9 9
1 1 3 6 7 5 4 4 3 3 4 4 3 4 6 6 6 6 6 5 5 5 5 6 7 6 7 7 7 7 7 8 8 8 8 8 8 8 8 8 8 8 8 8 8 9 9 9 9
0 1 4 6 6 5 4 3 1 2 3 3 2 4 6 6 6 6 6 5 5 5 4 4 5 6 7 7 8 8 8 8 7 8 9 9 9 9 9 8 8 8 8 8 8 9 9 9 9
1 1 4 4 4 4 4 3 1 1 3 3 1 2 5 8 7 7 6 5 5 4 4 4 4 4 5 7 8 7 7 7 7 7 7 7 7 8 8 8 9 9 8 8 8 8 9 9 9
2 1 3 3 3 4 4 3 3 1 3 3 2 3 6 10 9 8 6 5 5 4 3 3 3 3 3 5 6 5 5 5 4 5 6 3 4 6 6 10 9 9 9 9 9 9 9 9 10
1 1 4 2 1 3 3 2 2 4 3 4 5 6 7 9 9 7 6 5 5 4 4 3 3 3 3 3 3 2 3 3 3 4 4 4 5 5 5 9 8 8 9 9 9 8 7 4 5
1 2 3 2 2 2 3 2 2 2 1 2 4 7 9 9 8 6 5 5 4 4 3 3 2 2 3 2 2 2 2 2 3 4 4 4 4 3 3 3 4 5 5 5 6 5 4 5 4
2 2 1 2 3 2 2 2 2 1 1 1 3 6 9 9 8 6 5 4 4 3 3 3 2 3 3 3 2 2 2 2 2 3 4 3 3 3 3 3 3 3 3 4 4 3 5 6 6
2 2 1 1 2 2 2 2 2 1 1 2 5 7 8 8 7 6 5 5 4 4 3 3 2 2 3 3 2 2 2 2 3 3 2 3 3 3 3 3 3 4 3 4 4 4 5 5 6
1 1 1 1 2 2 2 2 3 2 3 5 6 7 8 8 7 6 6 5 4 4 3 3 3 3 3 3 2 2 3 2 2 3 3 4 3 3 3 3 3 3 3 3 3 5 4 4 5
2 2 2 2 2 2 3 3 3 3 4 6 7 7 7 7 7 6 6 5 4 4 4 4 3 3 3 3 3 2 2 3 2 2 3 3 3 3 3 2 3 3 3 4 3 5 4 4 4
3 3 3 2 2 2 4 3 2 3 5 6 6 7 7 7 8 7 6 5 5 4 4 5 4 4 3 3 3 2 3 3 2 2 2 3 3 3 3 2 3 3 3 3 3 3 4 4 4
4 3 3 2 3 3 5 5 2 3 6 6 7 7 8 8 8 7 7 6 5 5 5 6 5 5 4 3 3 3 3 3 2 2 2 2 3 3 3 2 2 3 3 3 3 3 3 4 4
3 3 3 3 2 4 6 7 4 4 6 7 7 7 8 8 8 7 7 6 5 5 5 6 6 5 5 3 3 3 3 2 2 2 2 2 2 3 3 2 3 3 3 3 3 4 3 3 3
4 5 5 3 1 5 7 7 5 5 6 7 7 7 7 7 7 7 7 7 6 6 6 6 6 6 5 3 3 3 3 2 2 2 3 3 2 2 2 2 2 2 2 2 3 3 4 3 2
7 6 5 3 1 5 7 7 4 4 6 6 6 7 7 7 7 7 7 7 7 7 7 7 6 6 6 4 3 2 2 2 2 2 2 2 2 2 1 2 2 2 2 3 3 3 2 2 1
7 7 6 5 4 5 6 6 5 4 5 5 6 6 7 7 7 8 8 8 8 8 8 6 7 7 6 6 4 3 3 3 3 3 2 2 2 2 1 1 1 2 2 2 3 3 3 2 1
7 5 6 7 7 4 4 5 2 3 5 5 7 7 7 7 7 7 7 8 8 8 7 8 7 7 7 7 5 5 4 3 3 2 3 3 3 2 2 2 2 2 1 2 3 3 2 2 2
5 2 4 6 7 7 5 6 2 3 4 4 6 7 7 7 7 7 6 7 7 7 7 7 7 7 7 7 6 6 4 3 3 3 3 3 3 2 2 2 2 2 2 2 2 2 3 2 2
3 4 4 5 6 7 4 6 3 1 2 2 3 5 6 7 7 6 6 6 6 6 6 6 7 7 7 7 7 7 6 5 4 4 3 3 2 2 3 2 2 2 2 2 2 2 3 2 2
6 6 4 5 5 3 1 5 3 3 3 3 2 3 4 6 6 6 6 6 6 7 7 7 7 7 7 8 8 7 7 6 6 5 4 4 3 3 3 3 3 2 2 2 2 2 3 3 3
4 6 5 4 3 2 3 5 0 2 2 2 1 1 3 4 5 5 6 6 6 7 7 7 8 7 7 8 8 7 7 5 4 5 4 4 3 3 3 3 3 3 3 3 3 2 3 3 3
4 5 5 7 6 6 4 3 3 1 1 1 1 1 3 3 4 4 4 5 5 6 7 7 8 7 7 8 7 7 7 6 5 6 5 3 3 3 4 4 3 3 4 4 3 3 3 2 2
5 3 4 6 6 6 5 5 2 1 2 2 1 1 2 3 4 4 4 4 4 5 5 6 6 6 7 7 6 5 7 7 6 5 6 5 5 4 4 4 4 4 4 4 4 3 3 3 2
5 5 5 5 5 6 5 1 3 3 4 3 2 0 1 3 3 4 3 4 4 4 5 5 5 5 5 6 6 6 7 6 6 6 6 5 5 5 5 5 4 4 4 5 4 4 4 4 4
6 6 7 7 6 7 7 3 3 2 3 3 2 1 1 2 3 3 3 4 3 3 4 4 4 4 4 5 5 6 6 6 7 7 6 6 5 5 5 5 5 5 5 5 5 5 5 5 5
Wind_Direction
174 201 242 240 210 106 82 80 81 87 69 62 59 57 57 42 28 62 89 75 70 76 85 103 77 66 63 55 57 59 61 63 73 78 83 85 90 90 88 84 90 97 96 93 92 91 91 91 90
168 219 238 245 220 113 90 90 88 75 89 98 78 69 72 71 61 89 104 86 84 82 83 74 75 70 67 60 60 63 60 56 66 79 85 88 89 92 89 84 85 93 93 93 91 90 88 91 89
141 262 274 211 72 74 96 95 92 94 104 109 85 60 52 75 86 97 93 104 99 90 84 82 74 71 66 64 64 64 56 53 63 78 87 87 86 87 84 81 84 88 89 92 94 94 90 88 90
231 215 214 111 91 76 89 102 108 119 115 93 96 92 84 70 85 94 107 112 104 98 91 89 77 72 67 66 64 63 59 55 64 77 84 86 85 84 85 84 87 87 88 90 93 93 90 88 87
241 246 133 106 92 95 100 99 123 110 98 97 98 95 97 94 96 104 115 114 104 99 94 92 84 77 72 67 65 64 59 56 64 73 80 84 83 84 85 86 90 91 91 92 90 90 90 88 85
217 218 137 109 102 107 114 124 136 106 96 104 110 102 97 109 118 116 116 110 99 96 97 100 104 85 73 67 64 63 61 59 63 69 71 75 79 78 79 81 86 90 92 95 94 91 88 87 84
310 106 100 109 117 120 114 127 133 97 105 100 118 110 117 129 124 129 124 115 101 97 98 96 104 109 102 79 64 58 57 56 58 65 69 72 74 74 76 77 85 90 93 94 94 92 90 87 85
328 147 122 120 127 109 118 140 118 77 85 96 166 111 120 136 138 137 125 119 112 106 102 98 98 94 103 103 86 70 63 61 62 65 70 75 85 85 82 86 84 87 89 92 94 93 91 88 84
246 179 111 114 130 111 138 158 133 124 121 126 116 70 96 131 145 146 139 134 123 112 104 100 98 94 86 83 97 102 97 83 92 95 89 87 81 81 87 78 82 84 85 88 88 92 95 98 94
241 95 79 84 126 124 147 153 143 164 154 144 137 126 128 145 155 154 150 142 133 125 115 107 103 104 100 89 96 87 85 87 77 73 81 70 69 67 73 89 88 87 91 95 90 97 110 107 96
87 71 86 110 124 133 152 154 164 197 158 145 150 149 152 159 160 159 153 140 130 119 109 105 103 94 96 102 87 81 77 81 76 73 85 80 79 85 78 86 100 96 102 96 105 110 83 78 72
127 100 106 109 125 157 171 166 169 238 342 86 149 151 158 165 166 166 161 145 133 124 113 106 105 110 106 100 92 94 90 83 80 72 76 82 81 79 78 76 77 80 81 82 82 83 85 79 76
147 108 96 134 156 179 177 203 221 242 236 154 154 161 165 170 169 167 160 150 148 143 137 121 121 110 105 97 97 107 93 81 90 80 74 82 86 86 89 89 85 81 84 92 90 87 84 78 71
101 128 170 191 193 191 197 216 214 205 172 164 168 170 170 173 173 167 168 167 161 158 147 135 134 118 120 121 124 100 98 101 84 86 81 79 85 92 92 91 86 82 81 84 93 92 90 85 76
165 175 172 173 190 181 222 216 210 190 179 176 175 172 172 176 180 182 177 179 168 160 153 142 135 130 123 111 100 96 97 97 95 88 80 85 88 97 98 98 100 97 99 100 93 92 89 92 92
193 209 209 161 197 193 240 257 152 167 196 196 189 178 180 183 188 188 185 183 170 163 155 143 146 146 124 115 119 113 103 102 104 99 83 94 97 95 101 103 103 108 111 109 106 103 101 97 90
202 230 237 196 194 215 242 265 220 188 209 208 201 193 190 188 193 190 189 188 180 173 163 154 155 149 136 128 125 112 107 104 106 107 94 94 99 101 99 97 109 117 118 118 117 110 105 99 95
219 247 254 260 200 238 250 261 249 211 218 217 206 202 198 198 197 193 189 189 187 184 173 159 159 160 147 149 141 127 117 116 110 97 100 87 92 95 103 119 119 122 126 126 127 122 112 103 105
267 261 270 278 260 256 264 269 259 220 214 215 205 205 201 203 193 187 187 187 188 187 182 168 172 167 159 160 166 159 148 147 128 110 104 108 100 103 109 128 126 136 134 142 145 137 131 126 127
249 256 267 266 250 265 279 275 257 221 217 219 213 207 201 194 187 179 188 188 192 189 191 183 181 175 171 170 167 162 147 150 125 126 129 129 121 108 117 144 139 144 146 160 157 153 152 139 187
247 255 268 279 277 241 275 258 216 192 208 211 216 216 206 197 194 183 187 187 190 191 192 191 188 182 180 173 165 156 149 162 156 150 148 150 138 134 141 136 141 153 171 171 177 175 185 176 182
256 255 260 259 263 261 259 277 225 202 200 208 210 207 207 198 197 188 187 189 193 193 192 195 189 187 182 177 181 181 186 180 167 160 155 167 167 157 166 174 176 171 167 174 189 188 198 205 188
275 271 245 251 261 264 235 263 238 185 222 217 210 205 203 196 193 190 191 193 192 187 190 196 190 190 187 189 188 202 203 187 171 173 169 178 165 176 183 196 200 194 188 189 188 193 213 221 221
222 203 203 226 245 249 245 257 262 172 287 261 206 200 198 192 191 190 185 185 185 180 183 189 193 191 190 197 198 207 202 196 189 193 183 186 177 188 189 204 214 209 201 198 200 201 212 231 224
212 237 231 222 220 234 179 252 268 12 338 305 277 213 192 187 185 185 183 182 180 180 181 187 191 192 194 202 207 208 207 205 205 203 197 200 194 197 192 205 213 214 212 207 206 209 213 217 225
218 251 267 279 275 269 210 241 206 32 351 322 292 202 175 173 179 182 183 183 180 181 184 189 193 196 197 208 211 210 208 212 213 212 211 212 210 203 195 208 215 212 212 209 206 225 224 229 224
223 234 280 282 278 272 240 225 214 119 36 45 90 157 170 166 172 177 178 183 182 183 186 192 193 196 201 208 212 213 210 212 213 216 212 216 216 209 210 209 216 214 215 220 215 221 217 223 226
278 252 223 248 271 265 254 245 243 349 356 4 4 199 185 175 174 174 175 183 184 183 183 193 199 200 202 208 212 214 214 211 213 217 212 212 214 210 212 215 217 218 214 212 217 227 227 217 208
197 213 234 248 263 273 273 242 60 345 339 329 333 303 193 188 183 175 170 176 179 176 176 188 196 201 204 209 211 210 213 212 211 217 218 219 217 214 217 220 225 223 217 211 208 218 215 216 208
254 248 238 249 245 250 270 274 84 4 341 326 321 2 164 176 178 170 167 165 167 176 180 189 197 199 203 209 211 214 213 213 215 217 217 216 218 219 225 225 228 225 222 220 215 212 214 216 218